When you browse on this site, cookies collect data to enhance your experience and personalize the content and advertising you see.
Visit our Privacy Policy to learn more. By continuing to use the site, you agree to this use of cookies and data.
  • In Hungary
  • List of Countries
  • For 7 days
  • Water Temperature
  • Weather Map
  • News
  • Weather Widgets
  • user-avatar
    Login

    Hourly Weather Kurgany

    Today, 19 January, Sunday

    Time Temperature Precipitation Wind Pressure Humidity
    00:00 -2°C° 0 mm 3 mps 749 mmHg 84%
    01:00 -2°C° 0 mm 3 mps 749 mmHg 85%
    02:00 -2°C° 0 mm 3 mps 750 mmHg 91%
    03:00 -2°C° 0 mm 3 mps 750 mmHg 92%
    04:00 -3°C° 0 mm 2 mps 750 mmHg 92%
    05:00 -3°C° 0 mm 2 mps 750 mmHg 93%
    06:00 -2°C° 0 mm 2 mps 751 mmHg 92%
    07:00 -1°C° 0 mm 3 mps 751 mmHg 91%
    08:00 -1°C° 0 mm 3 mps 752 mmHg 89%
    09:00 0°C° 0 mm 3 mps 752 mmHg 87%
    10:00 0°C° 0 mm 3 mps 752 mmHg 85%
    11:00 0°C° 0 mm 3 mps 752 mmHg 83%
    12:00 -1°C° 0 mm 4 mps 752 mmHg 82%
    13:00 -1°C° 0 mm 4 mps 752 mmHg 81%
    14:00 -1°C° 0 mm 4 mps 752 mmHg 80%
    15:00 -1°C° 0 mm 4 mps 752 mmHg 81%
    16:00 -1°C° 0 mm 4 mps 752 mmHg 82%
    17:00 -1°C° 0 mm 4 mps 752 mmHg 83%
    18:00 -1°C° 0 mm 4 mps 752 mmHg 85%
    19:00 -1°C° 0 mm 4 mps 752 mmHg 87%
    20:00 -1°C° 0 mm 4 mps 752 mmHg 89%
    21:00 -1°C° 0 mm 4 mps 752 mmHg 90%
    22:00 -1°C° 0 mm 4 mps 752 mmHg 91%
    23:00 -1°C° 0 mm 5 mps 752 mmHg 92%

    Tomorrow, 20 January, Monday

    Time Temperature Precipitation Wind Pressure Humidity
    00:00 0°C° 0 mm 5 mps 752 mmHg 90%
    01:00 0°C° 0 mm 4 mps 752 mmHg 88%
    02:00 0°C° 0 mm 4 mps 752 mmHg 87%
    03:00 0°C° 0 mm 4 mps 752 mmHg 87%
    04:00 0°C° 0 mm 4 mps 752 mmHg 88%
    05:00 0°C° 0 mm 5 mps 752 mmHg 89%
    06:00 0°C° 0 mm 5 mps 752 mmHg 91%
    07:00 -1°C° 0 mm 4 mps 752 mmHg 92%
    08:00 -1°C° 0 mm 4 mps 752 mmHg 94%
    09:00 -1°C° 0 mm 5 mps 752 mmHg 93%
    10:00 -1°C° 0 mm 5 mps 752 mmHg 92%
    11:00 0°C° 0 mm 5 mps 752 mmHg 90%
    12:00 0°C° 0.1 mm 5 mps 752 mmHg 91%
    13:00 -1°C° 0.1 mm 5 mps 752 mmHg 92%
    14:00 -1°C° 0.1 mm 5 mps 752 mmHg 93%
    15:00 -1°C° 0 mm 5 mps 752 mmHg 93%
    16:00 -1°C° 0 mm 5 mps 751 mmHg 92%
    17:00 0°C° 0 mm 5 mps 751 mmHg 92%
    18:00 -1°C° 0 mm 5 mps 750 mmHg 89%
    19:00 -1°C° 0 mm 5 mps 750 mmHg 85%
    20:00 -1°C° 0 mm 5 mps 750 mmHg 82%
    21:00 -1°C° 0 mm 5 mps 749 mmHg 81%
    22:00 -1°C° 0 mm 5 mps 749 mmHg 79%
    23:00 -1°C° 0 mm 5 mps 748 mmHg 78%

    Day after tomorrow, 21 January, Tuesday

    Time Temperature Precipitation Wind Pressure Humidity
    00:00 -1°C° 0 mm 5 mps 748 mmHg 80%
    01:00 -2°C° 0 mm 5 mps 747 mmHg 82%
    02:00 -2°C° 0 mm 5 mps 746 mmHg 84%
    03:00 -2°C° 0.1 mm 5 mps 745 mmHg 84%
    04:00 -1°C° 0.1 mm 5 mps 744 mmHg 84%
    05:00 -1°C° 0.1 mm 5 mps 743 mmHg 84%
    06:00 -2°C° 0.4 mm 6 mps 743 mmHg 84%
    07:00 -1°C° 0.4 mm 6 mps 742 mmHg 85%
    08:00 -1°C° 0.4 mm 6 mps 741 mmHg 86%
    09:00 +1°C° 0 mm 6 mps 741 mmHg 86%
    10:00 +2°C° 0 mm 6 mps 740 mmHg 87%
    11:00 +2°C° 0 mm 6 mps 740 mmHg 87%
    12:00 +2°C° 0 mm 6 mps 740 mmHg 86%
    13:00 +3°C° 0 mm 6 mps 739 mmHg 85%
    14:00 +3°C° 0 mm 6 mps 739 mmHg 84%
    15:00 +3°C° 0 mm 5 mps 738 mmHg 85%
    16:00 +3°C° 0 mm 5 mps 738 mmHg 86%
    17:00 +3°C° 0 mm 4 mps 737 mmHg 87%
    18:00 +3°C° 0.9 mm 4 mps 737 mmHg 90%
    19:00 +3°C° 0.9 mm 4 mps 736 mmHg 94%
    20:00 +3°C° 0.9 mm 3 mps 735 mmHg 97%
    21:00 +1°C° 0.4 mm 4 mps 735 mmHg 94%
    22:00 0°C° 0.4 mm 5 mps 735 mmHg 91%
    23:00 -1°C° 0.4 mm 6 mps 734 mmHg 89%

    22 January, Wednesday

    Time Temperature Precipitation Wind Pressure Humidity
    00:00 -2°C° 0 mm 6 mps 735 mmHg 85%
    01:00 -2°C° 0 mm 5 mps 736 mmHg 82%
    02:00 -2°C° 0 mm 5 mps 736 mmHg 78%
    03:00 -2°C° 0 mm 5 mps 736 mmHg 78%
    04:00 -2°C° 0 mm 5 mps 735 mmHg 78%
    05:00 -4°C° 0 mm 5 mps 735 mmHg 78%
    06:00 -4°C° 0 mm 5 mps 735 mmHg 78%
    07:00 -4°C° 0 mm 5 mps 735 mmHg 77%
    08:00 -4°C° 0 mm 5 mps 734 mmHg 77%
    09:00 -2°C° 0.1 mm 5 mps 734 mmHg 78%
    10:00 -2°C° 0.1 mm 5 mps 734 mmHg 79%
    11:00 -2°C° 0.1 mm 5 mps 734 mmHg 80%
    12:00 -2°C° 0.3 mm 5 mps 733 mmHg 80%
    13:00 -2°C° 0.3 mm 5 mps 733 mmHg 80%
    14:00 -2°C° 0.3 mm 5 mps 733 mmHg 81%
    15:00 -3°C° 0 mm 4 mps 733 mmHg 80%
    16:00 -3°C° 0 mm 4 mps 733 mmHg 79%
    17:00 -4°C° 0 mm 4 mps 733 mmHg 78%
    18:00 -4°C° 0 mm 4 mps 734 mmHg 79%
    19:00 -4°C° 0 mm 4 mps 734 mmHg 80%
    20:00 -4°C° 0 mm 4 mps 734 mmHg 80%
    21:00 -4°C° 0 mm 4 mps 735 mmHg 82%
    22:00 -4°C° 0 mm 4 mps 735 mmHg 83%
    23:00 -4°C° 0 mm 4 mps 736 mmHg 84%

    23 January, Thursday

    Time Temperature Precipitation Wind Pressure Humidity
    00:00 -6°C° 0.1 mm 5 mps 736 mmHg 78%
    01:00 -6°C° 0.1 mm 6 mps 737 mmHg 71%
    02:00 -6°C° 0.1 mm 6 mps 738 mmHg 65%
    03:00 -8°C° 0 mm 6 mps 738 mmHg 63%
    04:00 -9°C° 0 mm 6 mps 739 mmHg 61%
    05:00 -9°C° 0 mm 6 mps 739 mmHg 60%
    06:00 -9°C° 0 mm 6 mps 739 mmHg 63%
    07:00 -9°C° 0 mm 6 mps 740 mmHg 66%
    08:00 -8°C° 0 mm 5 mps 740 mmHg 70%
    09:00 -9°C° 0.1 mm 6 mps 741 mmHg 65%
    10:00 -8°C° 0.1 mm 6 mps 741 mmHg 60%
    11:00 -8°C° 0.1 mm 6 mps 741 mmHg 55%
    12:00 -8°C° 0 mm 6 mps 742 mmHg 53%
    13:00 -8°C° 0 mm 6 mps 742 mmHg 52%
    14:00 -7°C° 0 mm 5 mps 742 mmHg 51%
    15:00 -8°C° 0 mm 5 mps 743 mmHg 54%
    16:00 -8°C° 0 mm 4 mps 743 mmHg 57%
    17:00 -7°C° 0 mm 3 mps 743 mmHg 60%
    18:00 -7°C° 0 mm 3 mps 744 mmHg 61%
    19:00 -7°C° 0 mm 3 mps 744 mmHg 63%
    20:00 -7°C° 0 mm 3 mps 744 mmHg 64%
    21:00 -7°C° 0 mm 3 mps 744 mmHg 68%
    22:00 -6°C° 0 mm 2 mps 744 mmHg 72%
    23:00 -7°C° 0 mm 2 mps 743 mmHg 76%

    24 January, Friday

    Time Temperature Precipitation Wind Pressure Humidity
    00:00 -7°C° 0 mm 3 mps 743 mmHg 79%
    01:00 -7°C° 0 mm 3 mps 742 mmHg 81%
    02:00 -7°C° 0 mm 4 mps 741 mmHg 84%
    03:00 -7°C° 0.1 mm 4 mps 740 mmHg 86%
    04:00 -5°C° 0.1 mm 4 mps 738 mmHg 88%
    05:00 -6°C° 0.1 mm 5 mps 737 mmHg 90%
    06:00 -6°C° 0.6 mm 5 mps 736 mmHg 92%
    07:00 -5°C° 0.6 mm 5 mps 735 mmHg 93%
    08:00 -5°C° 0.6 mm 5 mps 733 mmHg 94%
    09:00 -4°C° 0.4 mm 5 mps 733 mmHg 93%
    10:00 -2°C° 0.4 mm 5 mps 733 mmHg 93%
    11:00 -1°C° 0.4 mm 4 mps 732 mmHg 92%
    12:00 -1°C° 0 mm 4 mps 732 mmHg 89%
    13:00 -1°C° 0 mm 4 mps 732 mmHg 85%
    14:00 0°C° 0 mm 4 mps 732 mmHg 81%
    15:00 -1°C° 0.1 mm 4 mps 732 mmHg 84%
    16:00 -2°C° 0.1 mm 4 mps 733 mmHg 87%
    17:00 -2°C° 0.1 mm 5 mps 733 mmHg 90%
    18:00 -4°C° 0 mm 5 mps 734 mmHg 88%
    19:00 -4°C° 0 mm 5 mps 734 mmHg 86%
    20:00 -5°C° 0 mm 5 mps 735 mmHg 84%
    21:00 -5°C° 0 mm 5 mps 735 mmHg 82%
    22:00 -5°C° 0 mm 5 mps 735 mmHg 80%
    23:00 -5°C° 0 mm 5 mps 736 mmHg 78%
    Show more